DateTimeUTC,F1_A11,F1_S11,BsB_S11,BsG_S11,BsR_S11,BbsB_S11,BbsG_S11,BbsR_S11,BaB_A11,BaG_A11,BaR_A11,Tu_S11,T_S11,Uu_S11,U_S11,P_S11,T1_A11
2021-03-17T13:00:00Z,00040200,21000000,,,,,,,0000.44,0000.08,0000.00,17.1,24.3,00.3,00.2,0652.0,30.9
2021-03-17T13:01:00Z,00040200,21000000,,,,,,,-000.18,0000.04,0000.40,17.1,24.4,00.3,00.2,0652.0,30.9
2021-03-17T13:02:00Z,00040200,21000000,,,,,,,0000.28,0000.31,-000.65,17.1,24.4,00.3,00.2,0652.0,30.9
2021-03-17T13:03:00Z,00040200,61000000,,,,,,,0000.32,0000.40,0000.48,17.1,24.4,00.3,00.2,0652.1,30.9
2021-03-17T13:04:00Z,00040200,41000000,-000.21,0000.25,0000.21,-000.45,0000.16,0000.07,0000.12,-000.27,0000.52,17.2,24.2,00.7,00.4,0653.0,30.9
2021-03-17T13:05:00Z,00040200,01000000,0000.33,0000.10,0000.11,-000.03,0000.06,-000.02,0000.42,0000.47,0000.34,17.3,24.1,00.7,00.5,0653.1,30.9
2021-03-17T13:06:00Z,00040200,01000000,-000.24,0000.21,0000.26,-000.05,0000.00,-000.08,0000.32,0000.75,0000.20,17.3,24.1,00.8,00.6,0653.1,30.9
2021-03-17T13:07:00Z,00040200,01000000,0000.03,0000.01,0000.20,-000.39,-000.03,0000.07,0000.21,-000.30,0000.10,17.3,24.1,01.0,00.7,0653.1,30.9
2021-03-17T13:08:00Z,00040200,01000000,0000.18,0000.06,0000.04,0000.16,-000.04,-000.00,-000.24,-000.13,-000.11,17.2,24.1,00.9,00.6,0653.1,30.9
2021-03-17T13:09:00Z,00040200,01000000,0000.35,0000.29,0000.47,-000.04,-000.04,0000.20,-000.21,-000.18,-000.41,17.3,24.1,00.9,00.6,0653.1,30.9
2021-03-17T13:10:00Z,00040200,01000000,-000.06,0000.11,-000.04,-000.20,0000.14,0000.06,-000.12,0000.16,0000.05,17.3,24.1,00.8,00.6,0653.2,30.9
2021-03-17T13:11:00Z,00040200,01000000,-000.10,-000.04,0000.25,-000.08,0000.12,0000.19,-000.23,0000.06,-000.01,17.3,24.1,00.7,00.5,0653.2,31.0
2021-03-17T13:12:00Z,00040200,01000000,-000.32,-000.01,0000.04,-000.05,0000.13,0000.22,0000.46,-000.01,-000.13,17.4,24.2,00.7,00.5,0653.2,31.0
2021-03-17T13:13:00Z,00040200,01000000,0000.16,0000.02,0000.05,0000.29,0000.17,0000.10,-000.42,0000.14,0000.24,17.4,24.2,00.7,00.5,0653.1,31.0
2021-03-17T13:14:00Z,00040200,01000000,0000.28,0000.09,0000.19,0000.23,0000.18,0000.11,0000.41,-000.04,0000.24,17.5,24.2,00.7,00.4,0653.2,31.0
2021-03-17T13:15:00Z,00040200,01000000,0000.44,0000.00,0000.23,0000.46,0000.24,-000.04,0000.42,0000.53,0000.03,17.5,24.2,00.8,00.5,0653.2,31.0
2021-03-17T13:16:00Z,00040200,01000000,0000.02,0000.21,0000.12,0000.05,-000.12,0000.27,-000.07,-000.30,-000.02,17.5,24.2,00.8,00.5,0653.2,31.0
2021-03-17T13:17:00Z,00040200,01000000,-000.17,0000.03,0000.25,0000.14,0000.11,-000.01,0000.07,0000.29,0000.11,17.5,24.2,00.7,00.4,0653.2,31.0
2021-03-17T13:18:00Z,00040200,01000000,0000.48,0000.17,0000.39,-000.03,0000.25,0000.42,0000.07,-000.04,-000.17,17.5,24.2,00.8,00.5,0653.1,31.0
2021-03-17T13:19:00Z,00040200,01000000,0000.13,-000.04,0000.07,0000.26,-000.08,0000.18,0000.18,-000.20,0000.41,17.5,24.2,00.8,00.6,0653.2,31.0
2021-03-17T13:20:00Z,00040200,01000000,0000.27,-000.28,0000.31,0000.04,-000.10,0000.10,0000.01,0000.48,0000.00,17.5,24.2,00.8,00.5,0653.1,30.9
2021-03-17T13:21:00Z,00040200,01000000,0000.62,-000.30,0000.02,0000.08,0000.21,0000.14,0000.52,0000.55,0000.03,17.5,24.2,00.9,00.6,0653.1,30.9
2021-03-17T13:22:00Z,00040200,01000000,-000.02,0000.08,0000.39,0000.12,0000.12,0000.32,-000.15,-000.26,0000.28,17.5,24.2,00.9,00.6,0653.1,31.0
2021-03-17T13:23:00Z,00040200,01000000,-000.14,0000.03,0000.20,0000.05,-000.01,0000.08,0000.37,0000.26,0000.37,17.5,24.2,00.9,00.6,0653.1,31.0
2021-03-17T13:24:00Z,00040200,01000000,-000.52,0000.01,0000.18,0000.21,0000.34,-000.03,0000.34,0000.45,-000.12,17.5,24.2,01.0,00.6,0653.1,31.0
2021-03-17T13:25:00Z,00040200,01000000,-000.41,0000.10,0000.24,0000.69,-000.17,0000.05,0000.24,0000.08,0000.45,17.6,24.2,01.1,00.7,0653.1,31.0
2021-03-17T13:26:00Z,00040200,01000000,0000.44,-000.19,0000.34,0000.15,0000.04,0000.15,0000.14,0000.26,-000.14,17.6,24.2,01.1,00.7,0653.2,31.0
2021-03-17T13:27:00Z,00040200,01000000,-000.35,0000.12,0000.17,-000.13,0000.02,0000.08,0000.43,-000.02,0000.41,17.6,24.2,01.1,00.7,0653.2,31.0
2021-03-17T13:28:00Z,00040200,01000000,-000.44,-000.07,0000.23,0000.12,-000.03,0000.14,0000.07,0000.45,-000.10,17.5,24.2,01.0,00.7,0653.2,31.0
2021-03-17T13:29:00Z,00040200,01000000,0000.07,-000.11,0000.08,-000.50,0000.13,0000.08,-000.01,-000.24,0000.22,17.6,24.3,01.1,00.7,0653.2,31.0
2021-03-17T13:30:00Z,00040200,01000000,-000.03,-000.11,0000.40,0000.14,0000.20,0000.20,0000.00,0000.34,0000.21,17.6,24.3,01.1,00.7,0653.3,31.0
2021-03-17T13:31:00Z,00040200,01000000,-000.21,0000.13,0000.15,-000.16,0000.05,-000.09,-000.07,0000.22,-000.14,17.6,24.3,01.0,00.7,0653.3,31.0
2021-03-17T13:32:00Z,00040200,01000000,-000.18,0000.14,0000.45,0000.03,0000.15,0000.31,0000.03,0000.00,0000.06,17.6,24.3,01.1,00.7,0653.3,31.0
2021-03-17T13:33:00Z,00040200,01000000,0000.04,-000.11,0000.27,0000.76,0000.18,-000.22,0000.09,-000.08,-000.02,17.6,24.3,01.1,00.7,0653.3,31.0
2021-03-17T13:34:00Z,00040200,01000000,0000.16,0000.16,0000.28,-000.14,0000.02,0000.01,0000.37,-000.02,-000.17,17.6,24.3,01.0,00.7,0653.2,31.0
2021-03-17T13:35:00Z,00040200,01000000,0000.11,-000.16,0000.35,-000.12,0000.21,0000.22,-000.33,-000.02,0000.28,17.6,24.3,01.1,00.7,0653.2,31.0
2021-03-17T13:36:00Z,00040200,01000000,0000.27,0000.03,0000.45,-000.22,0000.01,0000.07,0000.21,0000.08,-000.16,17.6,24.3,01.2,00.8,0653.2,31.0
2021-03-17T13:37:00Z,00040200,01000000,-000.23,-000.12,0000.21,-000.22,0000.28,0000.03,0000.11,0000.04,0000.15,17.6,24.3,01.2,00.8,0653.2,31.0
2021-03-17T13:38:00Z,00040200,01000000,-000.31,0000.24,0000.41,-000.10,0000.19,0000.34,0000.44,0000.37,0000.35,17.6,24.3,01.3,00.9,0653.2,31.0
2021-03-17T13:39:00Z,00040200,01000000,0000.00,0000.13,0000.18,0000.41,0000.03,-000.18,0000.38,0000.13,0000.23,17.6,24.3,01.2,00.8,0653.3,31.0
2021-03-17T13:40:00Z,00040200,01000000,0000.15,0000.04,0000.22,-000.13,0000.15,0000.03,-000.03,0000.10,-000.17,17.6,24.3,01.3,00.8,0653.3,30.9
2021-03-17T13:41:00Z,00040200,01000000,-000.18,0000.07,0000.31,-000.03,-000.01,0000.34,0000.71,0000.28,0000.69,17.6,24.3,01.3,00.8,0653.3,30.9
2021-03-17T13:42:00Z,00040200,01000000,-000.41,-000.14,0000.19,0000.14,0000.11,-000.02,0000.49,0000.76,0000.21,17.6,24.3,01.4,00.9,0653.3,30.9
2021-03-17T13:43:00Z,00040200,01000000,0000.01,0000.22,0000.02,0000.26,-000.05,-000.08,-000.47,-000.01,-000.19,17.6,24.3,01.4,00.9,0653.3,31.0
2021-03-17T13:44:00Z,00040200,01000000,0000.05,0000.07,0000.25,-000.18,0000.01,0000.16,0000.16,0000.02,0000.45,17.6,24.3,01.4,00.9,0653.3,30.9
2021-03-17T13:45:00Z,00040200,01000000,-000.10,0000.05,0000.30,-000.23,-000.04,0000.12,0000.25,-000.11,-000.42,17.6,24.3,01.4,00.9,0653.3,31.0
2021-03-17T13:46:00Z,00040200,01000000,-000.43,-000.10,-000.03,0000.24,0000.11,0000.19,-000.43,0000.03,-000.10,17.6,24.3,01.3,00.9,0653.3,31.0
2021-03-17T13:47:00Z,00040200,01000000,0000.43,0000.36,0000.05,0000.26,0000.06,-000.01,0000.20,-000.08,0000.22,17.6,24.3,01.3,00.9,0653.3,31.0
2021-03-17T13:48:00Z,00040200,01000000,0000.27,-000.14,-000.21,0000.19,0000.05,0000.04,-000.34,-000.03,0000.01,17.6,24.3,01.2,00.8,0653.4,31.0
2021-03-17T13:49:00Z,00040200,01000000,-000.37,0000.36,-000.04,0000.01,-000.11,0000.12,0000.30,0000.11,-000.14,17.6,24.3,01.3,00.9,0653.3,31.0
2021-03-17T13:50:00Z,00040200,01000000,-000.25,-000.03,0000.14,-000.44,0000.13,0000.16,-000.29,-000.19,-000.29,17.6,24.3,01.2,00.8,0653.3,31.0
2021-03-17T13:51:00Z,00040200,01000000,0000.13,-000.11,0000.08,-000.20,0000.14,0000.11,0000.04,-000.23,0000.43,17.7,24.3,01.2,00.8,0653.3,31.0
2021-03-17T13:52:00Z,00040200,01000000,-000.14,-000.09,-000.05,0000.20,0000.13,-000.01,0000.00,0000.13,-000.13,17.7,24.4,01.3,00.8,0653.3,31.0
2021-03-17T13:53:00Z,00040200,01000000,-000.28,0000.10,0000.49,0000.22,-000.18,0000.25,-000.20,-000.39,-000.01,17.6,24.4,01.2,00.8,0653.3,31.0
2021-03-17T13:54:00Z,00040200,01000000,-000.30,-000.09,0000.04,0000.37,0000.04,0000.02,0000.05,0000.27,0000.04,17.6,24.3,01.2,00.8,0653.3,30.9
2021-03-17T13:55:00Z,00040200,01000000,-000.11,-000.14,0000.02,-000.08,-000.02,-000.06,0000.03,0000.34,-000.16,17.6,24.4,01.1,00.7,0653.3,31.0
2021-03-17T13:56:00Z,00040200,01000000,-000.19,0000.11,0000.06,-000.01,-000.04,0000.16,0000.29,-000.28,0000.07,17.6,24.4,01.2,00.8,0653.3,31.0
2021-03-17T13:57:00Z,00040200,41000000,,,,,,,-000.61,-000.26,-000.08,17.7,24.4,00.9,00.6,0653.3,31.0
2021-03-17T13:58:00Z,00040200,61000000,,,,,,,0000.43,0000.33,0000.09,17.4,24.5,00.9,00.6,0652.5,30.9
2021-03-17T13:59:00Z,00040200,21000000,,,,,,,0000.04,0000.04,0000.36,17.4,24.6,00.9,00.6,0652.4,31.0
